Cloud_Cover
5 3 0 0 11 2 30 47 68 100 100 100 100 100 100 100 100 100 100 100 100 100 100 98 100 100 41 5 73 0 5 5 3 6 37 9 5 5 0 5 1 2 5
4 1 0 0 18 44 45 58 61 100 100 100 100 100 100 100 100 100 100 100 100 89 100 99 100 100 100 38 96 3 2 5 16 82 58 9 38 3 2 1 0 5 3
20 0 0 0 11 16 78 78 100 100 100 100 100 100 100 100 100 100 100 100 100 100 100 100 73 44 86 14 40 8 20 3 37 55 11 5 4 0 21 3 2 0 3
5 0 0 0 0 0 33 100 100 100 100 100 100 100 100 100 100 100 100 100 100 100 100 99 70 5 21 70 5 66 18 8 15 5 5 5 2 5 76 0 0 0 5
3 0 0 0 6 5 99 100 100 100 100 100 100 100 100 100 100 100 100 89 98 100 99 21 80 5 5 91 5 93 43 3 12 6 5 5 4 49 98 5 0 0 3
0 0 0 40 5 95 100 100 100 100 100 100 100 100 100 100 95 98 100 100 100 100 19 40 80 5 45 79 22 98 5 5 5 5 97 5 0 98 47 2 0 0 5
3 0 26 100 100 98 100 100 100 100 100 100 100 100 100 100 100 100 100 100 100 93 81 39 22 5 87 96 98 98 12 5 5 5 43 5 8 100 98 6 11 1 5
42 98 100 100 100 100 100 100 100 100 100 100 100 100 100 100 100 100 100 100 99 90 84 100 5 18 84 99 100 68 5 15 20 6 15 15 92 100 21 5 4 1 5
100 100 100 100 100 100 100 100 100 100 100 100 100 100 100 100 100 100 99 100 99 100 67 6 94 100 71 100 98 50 28 5 6 49 7 43 98 100 5 5 5 0 0
100 100 100 100 100 100 100 100 100 100 100 100 100 100 100 100 100 100 98 100 100 70 99 98 80 98 100 100 100 6 11 76 74 100 6 5 6 8 5 18 5 0 0
100 100 100 100 100 100 100 100 100 100 100 100 100 100 100 100 100 100 100 100 99 77 100 99 100 97 100 100 100 17 100 100 94 100 5 5 30 5 29 5 3 0 0
100 100 100 100 100 100 100 100 100 100 100 100 100 100 100 100 100 100 100 100 100 100 95 100 100 100 100 100 100 39 100 100 100 100 55 39 52 5 16 5 5 4 5
75 100 80 100 100 100 100 100 100 100 100 100 100 100 100 100 100 100 100 100 100 100 100 98 100 100 100 100 100 100 100 100 100 100 48 100 100 10 5 4 5 2 5
5 97 90 77 100 100 100 100 100 100 100 100 100 100 100 100 100 100 100 100 100 100 100 100 100 100 100 100 100 100 100 100 96 28 100 98 100 94 6 22 6 5 3
97 71 52 96 100 100 100 100 100 100 100 100 100 100 100 100 100 100 100 100 100 100 100 100 100 100 100 100 100 100 100 100 100 89 100 22 100 95 6 24 41 5 15
97 61 100 100 100 100 100 100 100 100 100 100 100 100 100 100 100 100 100 100 100 100 100 100 100 100 100 100 100 100 100 100 94 94 100 100 100 8 15 100 100 14 37
100 100 100 100 100 100 100 100 100 100 100 100 100 100 100 59 100 100 100 100 100 100 100 100 100 100 100 100 100 100 100 100 100 100 100 100 86 5 27 100 100 60 70
100 100 100 100 100 100 100 100 100 100 100 100 100 100 100 100 100 100 100 100 100 100 100 100 100 100 100 100 100 100 100 100 100 100 100 100 29 5 56 100 100 100 85
100 100 100 100 100 100 100 100 100 100 100 100 100 100 100 100 100 100 100 100 100 100 100 100 100 100 100 100 100 100 100 100 100 94 100 100 71 85 96 100 100 100 99
100 100 100 100 100 100 100 100 100 100 100 100 100 100 100 100 100 100 100 100 100 100 100 100 100 100 100 100 99 100 100 100 100 100 100 95 100 98 93 100 100 100 100
100 100 100 100 100 100 100 100 100 100 100 100 100 100 100 100 100 100 100 100 100 100 100 100 100 100 100 100 100 100 100 100 100 75 93 96 100 100 100 100 100 100 96
100 100 100 100 100 100 100 100 100 100 100 100 100 99 100 100 100 100 100 100 100 100 100 100 100 99 100 100 100 100 100 100 99 96 93 97 100 100 100 100 100 100 98
100 100 100 100 100 100 100 100 100 100 100 100 100 100 100 100 100 100 100 100 100 100 100 100 100 100 100 100 100 100 100 100 98 100 99 99 100 100 100 100 100 100 73
100 100 100 100 100 100 100 100 100 100 100 100 100 100 100 100 100 100 100 100 100 100 100 100 100 100 100 100 100 97 50 100 100 100 100 100 100 100 100 100 100 97 95
100 100 100 100 100 100 100 100 100 100 100 100 100 100 100 100 100 100 100 100 100 100 100 100 100 100 100 100 100 100 100 100 100 100 100 100 100 100 100 100 100 98 100
100 100 100 100 100 100 100 100 100 100 100 100 100 100 100 100 100 100 100 100 100 100 100 100 100 100 100 100 100 100 100 100 100 100 100 100 100 100 100 84 100 87 53